EI4HQ Weather Reports


Display with metric or nautical units.
time (UTC)temp
F
wind
direction
speed
MPH
gust
MPH
rain 1hr
in
rain 24hr
in
rain mn
in
humidity
%
barometer
mb
20210421073417 46 0 0.0 0.0 0.00 0.02 0.00 97 1017.7
20210421072536 46 10 0.0 1.0 0.00 0.02 0.00 97 1017.6
20210421071641 45 0 0.0 0.0 0.00 0.02 0.00 97 1017.5
20210421065737 44 8 3.0 7.0 0.00 0.02 0.00 97 1017.5
20210421064020 43 358 5.0 8.0 0.00 0.02 0.00 97 1017.5
20210421063125 43 357 5.0 8.0 0.00 0.02 0.00 97 1017.4
20210421062615 43 356 5.0 8.0 0.00 0.02 0.00 97 1017.4
20210421061316 42 354 6.0 8.0 0.00 0.02 0.00 97 1017.4
20210421060212 42 357 3.0 7.0 0.00 0.02 0.00 97 1017.3
20210421054617 42 355 5.0 8.0 0.00 0.02 0.00 97 1017.4
20210421053720 42 353 5.0 8.0 0.00 0.02 0.00 96 1017.3
20210421053052 42 354 3.0 7.0 0.00 0.02 0.00 96 1017.3
20210421052129 42 356 4.0 7.0 0.00 0.02 0.00 96 1017.3
20210421051025 43 355 6.0 9.0 0.00 0.02 0.00 97 1017.4
20210421050116 43 356 8.0 11.0 0.00 0.02 0.00 97 1017.4
20210421045457 42 355 7.0 9.0 0.00 0.02 0.00 96 1017.3
20210421044320 42 349 7.0 9.0 0.00 0.02 0.00 96 1017.5
20210421043427 43 347 7.0 9.0 0.00 0.02 0.00 96 1017.5
20210421042843 43 349 7.0 9.0 0.00 0.02 0.00 96 1017.6
20210421041620 43 354 7.0 9.0 0.00 0.02 0.00 96 1017.6
20210421040725 43 12 4.0 7.0 0.00 0.02 0.00 96 1017.5
20210421035919 44 29 3.0 4.0 0.00 0.02 0.00 96 1017.5
20210421034928 44 36 3.0 7.0 0.00 0.02 0.00 96 1017.5
20210421034026 44 33 4.0 8.0 0.00 0.02 0.00 96 1017.6
20210421033116 44 24 3.0 5.0 0.00 0.02 0.00 97 1017.7
20210421032433 45 27 4.0 9.0 0.00 0.02 0.00 97 1017.7
20210421031316 45 32 4.0 9.0 0.00 0.02 0.00 97 1017.6
20210421030421 45 31 5.0 9.0 0.00 0.02 0.00 97 1017.7
20210421025838 45 32 5.0 9.0 0.00 0.02 0.00 97 1017.7
20210421024621 45 26 4.0 7.0 0.00 0.02 0.00 97 1017.7
20210421023717 45 28 3.0 7.0 0.00 0.02 0.00 97 1017.7
20210421022848 45 29 4.0 7.0 0.00 0.02 0.00 97 1017.7
20210421022114 45 8 3.0 8.0 0.00 0.02 0.00 97 1017.7
20210421021025 45 4 4.0 7.0 0.00 0.02 0.00 97 1017.8
20210421020117 46 6 4.0 6.0 0.00 0.02 0.00 97 1017.9
20210421015542 46 6 4.0 7.0 0.00 0.02 0.00 97 1018.0
20210421014327 46 6 4.0 7.0 0.00 0.02 0.00 97 1018.0
20210421013416 46 7 4.0 7.0 0.00 0.02 0.00 97 1017.9
20210421012705 46 8 4.0 6.0 0.00 0.02 0.00 97 1018.0
20210421011616 46 8 4.0 7.0 0.00 0.02 0.00 96 1018.0
20210421010716 46 8 2.0 6.0 0.00 0.02 0.00 96 1018.0
20210421005151 46 0 0.0 0.0 0.00 0.02 0.00 96 1018.0
20210421004035 46 0 0.0 0.0 0.00 0.02 0.00 96 1018.0
20210421003116 46 0 0.0 0.0 0.00 0.02 0.00 96 1018.0
20210421002556 46 0 0.0 0.0 0.00 0.02 0.00 96 1018.0
20210421001316 47 0 0.0 0.0 0.00 0.02 0.00 96 1018.1
20210421000417 47 0 0.0 0.0 0.00 0.02 0.00 96 1018.1
20210420235805 47 0 0.0 0.0 0.00 0.02 0.00 96 1018.1
20210420234617 47 0 0.0 0.0 0.00 0.02 0.00 96 1018.2
20210420233716 47 0 0.0 0.0 0.00 0.03 0.00 96 1018.1
20210420232910 46 0 0.0 0.0 0.00 0.03 0.00 96 1018.1
20210420232028 46 0 0.0 0.0 0.00 0.03 0.00 95 1018.1
20210420231020 46 0 0.0 0.0 0.00 0.03 0.00 95 1018.1
20210420230124 47 0 0.0 0.0 0.00 0.03 0.00 96 1018.1
20210420225429 47 0 0.0 0.0 0.00 0.03 0.03 95 1018.1
20210420224317 48 0 0.0 0.0 0.00 0.03 0.03 96 1018.0
20210420223416 48 0 0.0 0.0 0.00 0.03 0.03 96 1018.1
20210420222621 48 0 0.0 0.0 0.00 0.04 0.03 96 1018.1
20210420221617 48 0 0.0 0.0 0.00 0.04 0.03 96 1018.1
20210420220720 48 0 0.0 0.0 0.00 0.05 0.03 96 1018.1
20210420215841 48 0 0.0 0.0 0.00 0.05 0.03 95 1018.0
20210420215058 48 0 0.0 0.0 0.00 0.05 0.03 95 1018.0
20210420214020 48 0 0.0 0.0 0.00 0.06 0.03 95 1017.9
20210420213120 48 0 0.0 0.0 0.00 0.06 0.03 95 1017.9
20210420212547 48 0 0.0 0.0 0.00 0.06 0.03 95 1018.0
20210420211316 48 0 0.0 0.0 0.00 0.06 0.03 95 1018.0
20210420210422 48 0 0.0 0.0 0.00 0.06 0.03 95 1018.0
20210420205526 48 0 0.0 0.0 0.00 0.06 0.03 95 1018.1
20210420204617 48 0 0.0 0.0 0.00 0.06 0.03 95 1018.1
20210420203716 49 0 0.0 0.0 0.01 0.07 0.03 95 1018.1
20210420202821 49 0 0.0 0.0 0.01 0.07 0.03 95 1018.0
20210420201918 49 0 0.0 0.0 0.01 0.07 0.03 94 1018.0
20210420201023 49 0 0.0 0.0 0.01 0.08 0.03 94 1017.9
20210420200116 49 0 0.0 0.0 0.01 0.08 0.03 94 1017.8
20210420195255 49 0 0.0 0.0 0.01 0.08 0.03 94 1017.8
20210420194319 49 0 0.0 0.0 0.00 0.07 0.02 94 1017.7
20210420193417 49 0 0.0 0.0 0.01 0.07 0.02 94 1017.7
20210420192633 49 0 0.0 0.0 0.01 0.07 0.02 93 1017.7
20210420191617 49 0 0.0 0.0 0.01 0.07 0.02 93 1017.6
20210420190718 49 0 0.0 0.0 0.01 0.08 0.02 93 1017.6
20210420185819 50 0 0.0 0.0 0.01 0.08 0.02 92 1017.5
20210420184921 50 0 0.0 0.0 0.01 0.08 0.02 91 1017.5
20210420184023 50 0 0.0 0.0 0.00 0.07 0.02 90 1017.4
20210420183118 51 0 0.0 0.0 0.00 0.08 0.02 88 1017.4
20210420182446 51 0 0.0 0.0 0.00 0.08 0.02 87 1017.5
20210420181317 51 0 0.0 0.0 0.00 0.08 0.02 85 1017.5
20210420180419 52 0 0.0 0.0 0.00 0.08 0.02 84 1017.5
20210420175613 52 0 0.0 0.0 0.00 0.08 0.02 84 1017.5
20210420174617 52 0 0.0 0.0 0.00 0.08 0.02 84 1017.4
20210420173716 52 0 0.0 0.0 0.00 0.08 0.02 84 1017.4
20210420172817 52 0 0.0 0.0 0.00 0.08 0.02 84 1017.3
20210420171956 52 0 0.0 0.0 0.00 0.09 0.02 84 1017.3
20210420171027 52 0 0.0 0.0 0.00 0.09 0.02 84 1017.3
20210420170337 52 0 0.0 0.0 0.00 0.09 0.02 83 1017.4
20210420165904 52 0 0.0 0.0 0.00 0.09 0.02 83 1017.3
20210420164317 52 0 0.0 0.0 0.00 0.09 0.02 83 1017.3
20210420163416 52 0 0.0 0.0 0.00 0.10 0.02 85 1017.3
20210420162700 52 0 0.0 0.0 0.00 0.10 0.02 85 1017.2
20210420161625 52 0 0.0 0.0 0.00 0.10 0.02 87 1017.2
20210420160716 51 0 0.0 0.0 0.00 0.11 0.02 87 1017.3
20210420155820 51 0 0.0 0.0 0.00 0.11 0.02 87 1017.2
20210420154933 51 0 0.0 0.0 0.00 0.12 0.02 88 1017.2
20210420154025 51 0 0.0 0.0 0.00 0.12 0.02 88 1017.2
20210420153118 51 0 0.0 0.0 0.00 0.13 0.02 88 1017.3
20210420152607 51 0 0.0 0.0 0.00 0.13 0.02 89 1017.2
20210420151318 51 0 0.0 0.0 0.00 0.13 0.02 89 1017.3
20210420150416 51 132 0.0 5.0 0.00 0.13 0.02 90 1017.3
20210420145632 52 142 1.0 5.0 0.00 0.13 0.02 90 1017.2
20210420144619 52 120 0.0 1.0 0.00 0.13 0.02 90 1017.3
20210420143717 52 0 0.0 0.0 0.00 0.13 0.02 90 1017.3
20210420142817 51 0 0.0 0.0 0.00 0.13 0.02 89 1017.4
20210420141943 51 0 0.0 0.0 0.00 0.13 0.02 89 1017.4
20210420141036 51 0 0.0 0.0 0.00 0.13 0.02 89 1017.4
20210420140236 51 0 0.0 0.0 0.00 0.13 0.02 89 1017.3
20210420135541 51 0 0.0 0.0 0.00 0.13 0.02 89 1017.5
20210420134316 51 0 0.0 0.0 0.00 0.14 0.02 90 1017.4
20210420133417 51 98 0.0 5.0 0.00 0.14 0.02 90 1017.4
20210420132747 51 0 0.0 0.0 0.00 0.14 0.02 90 1017.5
20210420131618 51 0 0.0 0.0 0.00 0.14 0.02 90 1017.4
20210420130718 51 0 0.0 0.0 0.00 0.14 0.02 91 1017.4
20210420125944 50 0 0.0 0.0 0.00 0.14 0.02 92 1017.3
20210420125037 50 98 0.0 3.0 0.00 0.14 0.02 92 1017.3
20210420124031 51 97 3.0 6.0 0.00 0.14 0.02 93 1017.3
20210420123116 51 104 1.0 7.0 0.00 0.14 0.02 94 1017.3
20210420122749 51 0 0.0 0.0 0.00 0.14 0.02 95 1017.3
20210420121322 51 0 0.0 0.0 0.00 0.14 0.02 95 1017.3
20210420120425 51 0 0.0 0.0 0.00 0.14 0.02 96 1017.2
20210420115748 51 0 0.0 0.0 0.00 0.14 0.02 96 1017.2
20210420114617 51 0 0.0 0.0 0.00 0.14 0.02 96 1017.2
20210420113716 51 0 0.0 0.0 0.00 0.14 0.02 96 1017.3
20210420112820 51 159 0.0 4.0 0.00 0.14 0.02 97 1017.1
20210420111946 51 160 3.0 4.0 0.00 0.14 0.02 97 1017.3
20210420111016 51 160 0.0 3.0 0.00 0.14 0.02 97 1017.3
20210420110120 51 0 0.0 0.0 0.00 0.14 0.02 97 1017.3
20210420105415 51 0 0.0 0.0 0.00 0.14 0.02 97 1017.1
20210420104321 51 0 0.0 0.0 0.00 0.14 0.02 97 1017.1
20210420103419 51 0 0.0 0.0 0.00 0.14 0.02 97 1017.2
20210420102532 51 0 0.0 0.0 0.00 0.14 0.02 98 1017.1
20210420101616 51 160 2.0 3.0 0.00 0.14 0.02 98 1017.1
20210420100716 51 161 2.0 3.0 0.00 0.14 0.02 98 1017.1
20210420095817 50 161 2.0 4.0 0.00 0.14 0.02 98 1017.0
20210420094924 50 160 3.0 5.0 0.00 0.14 0.02 97 1017.0
20210420094022 50 160 4.0 6.0 0.00 0.14 0.02 97 1017.0
20210420093116 50 160 4.0 6.0 0.00 0.14 0.02 98 1017.0
20210420092217 50 161 4.0 6.0 0.00 0.14 0.02 98 1016.9
20210420091316 50 162 4.0 6.0 0.00 0.14 0.02 98 1016.9
20210420090417 50 162 4.0 6.0 0.00 0.14 0.02 97 1016.8
20210420085733 50 163 4.0 6.0 0.00 0.14 0.02 98 1016.7
20210420084616 50 165 4.0 8.0 0.00 0.14 0.02 98 1016.8
20210420083716 50 157 3.0 5.0 0.00 0.15 0.02 98 1016.8
20210420082817 50 156 3.0 5.0 0.00 0.15 0.02 98 1016.8
20210420081923 50 157 3.0 5.0 0.00 0.15 0.02 98 1016.8
20210420081016 50 157 3.0 5.0 0.00 0.15 0.02 98 1016.7
20210420080121 50 157 3.0 5.0 0.00 0.15 0.02 98 1016.7
20210420075418 50 156 4.0 6.0 0.00 0.15 0.02 98 1016.5
20210420074318 50 155 4.0 8.0 0.00 0.15 0.02 98 1016.5